K9DC Weather Reports


time (UTC)temp
C
wind
direction
speed
KPH
gust
KPH
rain 1hr
cm
rain 24hr
cm
rain mn
cm
humidity
%
barometer
mb
20260503200503 16 224 14.5 30.6 0.00 0.00 0.00 42 1013.0
20260503200004 16 218 12.9 25.7 0.00 0.00 0.00 42 1012.9
20260503195505 16 233 12.9 32.2 0.00 0.00 0.00 42 1013.3
20260503195003 16 242 11.3 32.2 0.00 0.00 0.00 43 1013.5
20260503194503 16 224 8.0 24.1 0.00 0.00 0.00 44 1013.6
20260503194004 16 234 11.3 32.2 0.00 0.00 0.00 43 1013.9
20260503193503 16 247 12.9 32.2 0.00 0.00 0.00 42 1014.2
20260503193003 16 249 11.3 25.7 0.00 0.00 0.00 41 1014.4
20260503192504 16 252 12.9 30.6 0.00 0.00 0.00 42 1014.5
20260503192004 16 249 14.5 30.6 0.00 0.00 0.00 41 1014.5
20260503191504 16 235 12.9 33.8 0.00 0.00 0.00 40 1014.4
20260503191003 16 232 14.5 33.8 0.00 0.00 0.00 40 1014.1
20260503190503 17 229 14.5 30.6 0.00 0.00 0.00 38 1014.2
20260503190004 17 226 11.3 24.1 0.00 0.00 0.00 40 1014.2
20260503185503 17 241 11.3 30.6 0.00 0.00 0.00 41 1014.3
20260503185004 17 247 12.9 30.6 0.00 0.00 0.00 39 1014.2
20260503184504 17 231 12.9 30.6 0.00 0.00 0.00 43 1014.2
20260503184005 17 217 9.7 30.6 0.00 0.00 0.00 41 1014.1
20260503183503 16 209 9.7 25.7 0.00 0.00 0.00 44 1014.4
20260503183003 16 207 9.7 25.7 0.00 0.00 0.00 44 1014.4
20260503182504 16 224 8.0 22.5 0.00 0.00 0.00 44 1014.7
20260503182005 16 219 8.0 20.9 0.00 0.00 0.00 43 1015.1
20260503181505 16 231 8.0 22.5 0.00 0.00 0.00 44 1015.1
20260503181005 15 234 11.3 25.7 0.00 0.00 0.00 43 1015.2
20260503180504 15 223 9.7 27.4 0.00 0.00 0.00 42 1015.5
20260503180005 15 231 9.7 27.4 0.00 0.00 0.00 43 1015.4
20260503175503 15 230 11.3 22.5 0.00 0.00 0.00 41 1015.6
20260503175004 15 230 11.3 25.7 0.00 0.00 0.00 41 1015.6
20260503174504 15 237 11.3 25.7 0.00 0.00 0.00 40 1015.7
20260503174003 16 249 11.3 25.7 0.00 0.00 0.00 42 1015.7
20260503173503 16 245 12.9 25.7 0.00 0.00 0.00 41 1015.9
20260503173003 16 229 14.5 25.7 0.00 0.00 0.00 39 1016.0
20260503172505 16 225 12.9 27.4 0.00 0.00 0.00 38 1016.1
20260503172004 16 243 12.9 32.2 0.00 0.00 0.00 37 1016.2
20260503171504 16 245 14.5 32.2 0.00 0.00 0.00 36 1016.2
20260503171003 16 249 14.5 33.8 0.00 0.00 0.00 40 1016.3
20260503170503 17 254 11.3 33.8 0.00 0.00 0.00 38 1016.4
20260503151003 15 251 14.5 29.0 0.00 0.00 0.00 45 1017.5
20260503150506 14 245 16.1 29.0 0.00 0.00 0.00 40 1017.5
20260503131003 2 244 4.8 16.1 0.00 0.00 0.00 81 1017.9
20260503130503 2 246 6.4 17.7 0.00 0.00 0.00 81 1018.0
20260503110504 2 322 1.6 4.8 0.00 0.00 0.00 81 1017.6
20260503090504 2 322 1.6 4.8 0.00 0.00 0.00 80 1017.2
20260503081503 2 322 1.6 4.8 0.00 0.00 0.00 80 1017.3
20260503081003 2 322 1.6 4.8 0.00 0.00 0.00 80 1017.2
20260503080503 2 322 1.6 4.8 0.00 0.00 0.00 80 1017.3
20260503072503 2 322 1.6 4.8 0.00 0.00 0.00 80 1017.2
20260503072003 2 322 1.6 4.8 0.00 0.00 0.00 79 1017.3
20260503071504 2 322 1.6 4.8 0.00 0.00 0.00 79 1017.3
20260503071004 2 322 1.6 4.8 0.00 0.00 0.00 79 1017.3
20260503070504 2 322 1.6 4.8 0.00 0.00 0.00 79 1017.3
20260503055003 3 321 0.0 3.2 0.00 0.00 0.00 78 1017.7
20260503054503 3 321 1.6 4.8 0.00 0.00 0.00 78 1017.7
20260503054004 3 321 0.0 4.8 0.00 0.00 0.00 78 1017.8
20260503053503 3 321 0.0 3.2 0.00 0.00 0.00 78 1017.7
20260503053003 3 321 0.0 3.2 0.00 0.00 0.00 78 1017.8
20260503052504 3 322 1.6 4.8 0.00 0.00 0.00 78 1017.8
20260503052003 3 322 3.2 4.8 0.00 0.00 0.00 78 1017.9
20260503051504 3 322 1.6 4.8 0.00 0.00 0.00 78 1017.8
20260503051003 3 322 1.6 3.2 0.00 0.00 0.00 77 1017.9
20260503050503 3 322 1.6 3.2 0.00 0.00 0.00 77 1017.9
20260503050004 3 322 1.6 3.2 0.00 0.00 0.00 77 1017.9
20260503045505 3 322 1.6 4.8 0.00 0.00 0.00 77 1017.9
20260503045004 3 322 1.6 4.8 0.00 0.00 0.00 76 1017.9
20260503044503 3 322 3.2 4.8 0.00 0.00 0.00 76 1017.9
20260503044004 3 322 1.6 4.8 0.00 0.00 0.00 76 1017.9
20260503043503 3 322 1.6 3.2 0.00 0.00 0.00 75 1017.9
20260503043003 3 322 1.6 3.2 0.00 0.00 0.00 75 1017.9
20260503042503 3 322 1.6 4.8 0.00 0.00 0.00 74 1017.9
20260503042003 3 321 1.6 4.8 0.00 0.00 0.00 74 1017.9
20260503041503 3 322 1.6 3.2 0.00 0.00 0.00 74 1017.8
20260503041004 4 322 1.6 3.2 0.00 0.00 0.00 73 1017.8
20260503040503 4 321 0.0 3.2 0.00 0.00 0.00 73 1017.9
20260503040004 4 321 0.0 3.2 0.00 0.00 0.00 72 1017.9
20260503035503 4 321 0.0 3.2 0.00 0.00 0.00 72 1017.9
20260503035005 4 0 0.0 0.0 0.00 0.00 0.00 72 1017.9
20260503034504 4 0 0.0 0.0 0.00 0.00 0.00 71 1017.8
20260503034003 4 0 0.0 0.0 0.00 0.00 0.00 70 1017.8
20260503033505 4 0 0.0 0.0 0.00 0.00 0.00 70 1017.8
20260503033003 5 0 0.0 0.0 0.00 0.00 0.00 69 1017.8
20260503032503 5 0 0.0 0.0 0.00 0.00 0.00 69 1017.9
20260503032003 5 0 0.0 0.0 0.00 0.00 0.00 68 1017.9
20260503031505 5 0 0.0 0.0 0.00 0.00 0.00 68 1017.9
20260503031004 5 0 0.0 0.0 0.00 0.00 0.00 67 1017.9
20260503030504 5 0 0.0 0.0 0.00 0.00 0.00 66 1017.9
20260503030003 5 0 0.0 0.0 0.00 0.00 0.00 65 1018.0
20260503025504 5 0 0.0 0.0 0.00 0.00 0.00 64 1018.1
20260503025003 5 0 0.0 0.0 0.00 0.00 0.00 63 1018.1
20260503024503 5 0 0.0 0.0 0.00 0.00 0.00 62 1018.1
20260503024003 5 0 0.0 0.0 0.00 0.00 0.00 61 1018.0
20260503023504 5 0 0.0 0.0 0.00 0.00 0.00 60 1017.9
20260503023004 6 0 0.0 0.0 0.00 0.00 0.00 60 1017.9
20260503022503 6 0 0.0 0.0 0.00 0.00 0.00 59 1017.8
20260503022003 6 0 0.0 0.0 0.00 0.00 0.00 58 1017.8
20260503021503 6 0 0.0 0.0 0.00 0.00 0.00 57 1017.8
20260503021004 6 0 0.0 0.0 0.00 0.00 0.00 57 1017.8
20260503020503 6 0 0.0 0.0 0.00 0.00 0.00 56 1017.7
20260503020004 6 0 0.0 0.0 0.00 0.00 0.00 54 1017.7
20260503015504 6 0 0.0 0.0 0.00 0.00 0.00 53 1017.6
20260503015003 7 0 0.0 0.0 0.00 0.00 0.00 52 1017.6
20260503014504 7 0 0.0 0.0 0.00 0.00 0.00 52 1017.5
20260503014005 7 0 0.0 0.0 0.00 0.00 0.00 51 1017.5
20260503013503 7 0 0.0 0.0 0.00 0.00 0.00 49 1017.5
20260503013003 7 0 0.0 0.0 0.00 0.00 0.00 49 1017.4
20260503012503 8 0 0.0 0.0 0.00 0.00 0.00 47 1017.4
20260503012004 8 0 0.0 0.0 0.00 0.00 0.00 47 1017.4
20260503011503 8 0 0.0 0.0 0.00 0.00 0.00 48 1017.4
20260503011004 8 0 0.0 0.0 0.00 0.00 0.00 46 1017.3
20260503010503 9 0 0.0 0.0 0.00 0.00 0.00 45 1017.3
20260503010004 9 322 0.0 1.6 0.00 0.00 0.00 45 1017.2
20260503005504 10 321 0.0 1.6 0.00 0.00 0.00 45 1017.2
20260503005003 10 322 1.6 4.8 0.00 0.00 0.00 44 1017.2
20260503004503 10 322 1.6 4.8 0.00 0.00 0.00 44 1017.3
20260503004004 10 322 1.6 8.0 0.00 0.00 0.00 42 1017.3
20260503003504 10 321 3.2 8.0 0.00 0.00 0.00 40 1017.3
20260503003003 10 321 3.2 8.0 0.00 0.00 0.00 38 1017.3
20260503002503 10 321 1.6 6.4 0.00 0.00 0.00 38 1017.2
20260503002004 10 316 3.2 14.5 0.00 0.00 0.00 39 1017.2
20260503001504 10 312 6.4 14.5 0.00 0.00 0.00 38 1017.2
20260503001003 10 311 4.8 16.1 0.00 0.00 0.00 37 1017.1
20260503000503 10 314 4.8 16.1 0.00 0.00 0.00 37 1017.1
20260503000003 10 318 4.8 16.1 0.00 0.00 0.00 37 1017.1
20260502235503 10 320 4.8 17.7 0.00 0.00 0.00 36 1017.1
20260502235004 10 320 4.8 19.3 0.00 0.00 0.00 36 1017.0
20260502234504 10 320 4.8 19.3 0.00 0.00 0.00 37 1017.0
20260502234004 10 318 4.8 12.9 0.00 0.00 0.00 36 1017.0
20260502233503 10 318 4.8 17.7 0.00 0.00 0.00 36 1017.0
20260502233004 11 320 3.2 17.7 0.00 0.00 0.00 36 1016.9
20260502232504 11 324 1.6 12.9 0.00 0.00 0.00 36 1017.0
20260502232004 11 325 0.0 12.9 0.00 0.00 0.00 36 1016.9
20260502231503 11 326 1.6 12.9 0.00 0.00 0.00 37 1017.0
20260502231003 11 334 1.6 12.9 0.00 0.00 0.00 36 1017.0
20260502230504 11 338 1.6 9.7 0.00 0.00 0.00 36 1017.2
20260502230006 11 328 3.2 14.5 0.00 0.00 0.00 35 1017.1
20260502225504 11 323 3.2 17.7 0.00 0.00 0.00 34 1017.2
20260502225004 11 324 1.6 17.7 0.00 0.00 0.00 34 1017.1
20260502224503 11 316 4.8 29.0 0.00 0.00 0.00 35 1017.1
20260502224003 11 313 6.4 29.0 0.00 0.00 0.00 36 1017.2
20260502223507 11 312 4.8 17.7 0.00 0.00 0.00 35 1017.1
20260502223004 11 314 3.2 17.7 0.00 0.00 0.00 35 1017.2
20260502222504 11 318 1.6 17.7 0.00 0.00 0.00 35 1017.1
20260502222004 11 323 1.6 12.9 0.00 0.00 0.00 34 1017.2
20260502221503 11 335 1.6 12.9 0.00 0.00 0.00 36 1017.2
20260502221003 12 14 0.0 8.0 0.00 0.00 0.00 34 1017.2
20260502220503 12 334 0.0 11.3 0.00 0.00 0.00 34 1017.1
20260502220004 12 323 1.6 14.5 0.00 0.00 0.00 32 1017.1
20260502215504 12 320 0.0 14.5 0.00 0.00 0.00 34 1017.1
20260502215003 12 301 1.6 14.5 0.00 0.00 0.00 35 1017.0
20260502214503 11 309 6.4 19.3 0.00 0.00 0.00 38 1017.0
20260502214004 11 314 8.0 19.3 0.00 0.00 0.00 35 1017.1
20260502213504 11 313 6.4 17.7 0.00 0.00 0.00 35 1017.1
20260502213003 12 317 6.4 27.4 0.00 0.00 0.00 34 1017.1
20260502212503 12 320 4.8 27.4 0.00 0.00 0.00 34 1017.0
20260502212003 12 313 0.0 17.7 0.00 0.00 0.00 34 1017.0
20260502211504 12 318 3.2 17.7 0.00 0.00 0.00 35 1017.0
20260502211004 12 313 8.0 22.5 0.00 0.00 0.00 34 1017.0
20260502210503 12 309 6.4 27.4 0.00 0.00 0.00 36 1016.9
20260502210003 12 313 3.2 27.4 0.00 0.00 0.00 35 1016.9
20260502205504 12 324 3.2 17.7 0.00 0.00 0.00 37 1017.0
20260502205003 12 325 1.6 17.7 0.00 0.00 0.00 35 1017.1
20260502204504 12 332 1.6 12.9 0.00 0.00 0.00 36 1017.0
20260502204004 12 320 3.2 14.5 0.00 0.00 0.00 35 1017.1
20260502203503 12 316 6.4 20.9 0.00 0.00 0.00 36 1017.1
20260502203003 12 315 4.8 20.9 0.00 0.00 0.00 34 1017.1
20260502202504 12 310 1.6 12.9 0.00 0.00 0.00 35 1017.1
20260502202004 12 323 3.2 14.5 0.00 0.00 0.00 35 1017.2
20260502201503 12 321 3.2 19.3 0.00 0.00 0.00 34 1017.1
20260502201003 12 322 3.2 19.3 0.00 0.00 0.00 37 1017.2